Printer-friendly version
Follow the MPC on Twitter Follow the MPC on Facebook The MPC blog
Minor Planet Center

MPEC 2010-D07 : 2010 CM44

The following Minor Planet Electronic Circular may be linked-to from your own Web pages, but must not otherwise be redistributed electronically.

A form allowing access to any MPEC is at the bottom of this page.


Read MPEC 2010-D06 Read MPEC 2010-D08


M.P.E.C. 2010-D07                                Issued 2010 Feb. 16, 15:20 UT

     The Minor Planet Electronic Circulars contain information on unusual
         minor planets and routine data on comets.  They are published
   on behalf of Commission 20 of the International Astronomical Union by the
          Minor Planet Center, Smithsonian Astrophysical Observatory,
                          Cambridge, MA 02138, U.S.A.

             Prepared using the Tamkin Foundation Computer Network

                              MPC@CFA.HARVARD.EDU
          URL http://www.cfa.harvard.edu/iau/mpc.html  ISSN 1523-6714

                                   2010 CM44

Observations:
     K10C44M* C2010 02 13.34077 12 10 56.88 +11 38 09.7          18.8   ED007704
     K10C44M  C2010 02 13.35301 12 10 57.72 +11 38 02.6          19.2   ED007704
     K10C44M  C2010 02 13.36524 12 10 58.57 +11 37 55.3          19.5   ED007704
     K10C44M  C2010 02 13.37745 12 10 59.38 +11 37 48.2          19.3   ED007704
     K10C44M  C2010 02 13.38971 12 11 00.23 +11 37 40.7          19.2   ED007704
     K10C44M VC2010 02 15.69789 12 13 52.25 +11 14 24.4          18.4 R ED007D96
     K10C44M VC2010 02 15.71916 12 13 53.68 +11 14 10.1                 ED007D96
     K10C44M  C2010 02 16.38953 12 14 42.60 +11 06 37.3          18.7 R ED007H36
     K10C44M  C2010 02 16.39318 12 14 42.84 +11 06 35.1          18.6 R ED007H36
     K10C44M  C2010 02 16.39684 12 14 43.06 +11 06 32.9          18.7 R ED007H36
     K10C44M  C2010 02 16.40416 12 14 43.54 +11 06 28.1          18.7 R ED007H36
     K10C44M  C2010 02 16.47838 12 14 48.73 +11 05 41.7          18.6 R ED007926
     K10C44M  C2010 02 16.48131 12 14 48.97 +11 05 40.0          18.8 R ED007926
     K10C44M  C2010 02 16.48425 12 14 49.18 +11 05 38.3          19.0 R ED007926

Observer details:
704 Lincoln Laboratory ETS, New Mexico.  Observers M. Blythe, G. Spitz,
    R. Brungard, J. Paige, P. Festler.  1.0-m f/2.15 reflector + CCD.
926 Tenagra II Observatory.  Observers P. R. Holvorcem, M. Schwartz.  Measurer
    P. R. Holvorcem.  0.81-m f/7 Ritchey-Chretien + CCD.
D96 Tzec Maun Observatory, Moorook.  Observers P. Concari, S. Foglia, G. Galli,
    M. Tombelli.  0.18-m f/2.8 Newtonian reflector + CCD.
H36 Sandlot Observatory, Scranton.  Observer G. Hug.  0.56-m reflector + CCD.

Orbital elements:
2010 CM44                                                Earth MOID = 0.2118 AU
Epoch 2010 Jan. 4.0 TT = JDT 2455200.5                  MPC
M 333.84710              (2000.0)            P               Q
n   0.25285286     Peri.  194.83813     -0.89460518     +0.44626953
a   2.4767992      Node    11.74656     -0.39766416     -0.77168314
e   0.5104645      Incl.    6.46269     -0.20382539     -0.45315411
P   3.90           H   18.9           G   0.15           U   8
Residuals in seconds of arc
100213 704  0.1+  0.0     100215 D96  0.1-  0.5+    100216 H36  0.7-  0.2+
100213 704  0.0   0.1+    100215 D96  0.2+  0.3-    100216 926  0.3-  0.2-
100213 704  0.1+  0.0     100216 H36  0.2-  0.1-    100216 926  0.4+  0.0
100213 704  0.4-  0.1+    100216 H36  0.3-  0.0     100216 926  0.7+  0.3+
100213 704  0.3-  0.1-    100216 H36  0.6-  0.2+

Ephemeris:
2010 CM44                a,e,i = 2.48, 0.51, 6                   q = 1.2125
Date    TT    R. A. (2000) Decl.     Delta      r     Elong.  Phase     V
2010 02 13    12 10.51   +11 41.7    0.468    1.395   144.6    24.2    19.1
2010 02 23    12 22.42   +09 47.7    0.393    1.346   150.8    21.0    18.5
2010 03 05    12 32.89   +07 09.5    0.331    1.304   157.3    17.1    18.0
2010 03 15    12 41.98   +03 27.3    0.282    1.268   164.1    12.4    17.4
2010 03 25    12 50.14   -01 36.8    0.245    1.240   171.2     7.0    16.8
2010 04 04    12 58.38   -08 03.5    0.222    1.222   176.9     2.5    16.3
2010 04 14    13 07.71   -15 20.4    0.212    1.213   172.1     6.5    16.4
2010 04 24    13 19.32   -22 28.1    0.215    1.215   165.3    12.1    16.7
2010 05 04    13 33.94   -28 27.8    0.230    1.226   159.6    16.7    17.0
2010 05 14    13 51.26   -32 47.7    0.256    1.248   155.1    19.9    17.4
2010 05 24    14 10.76   -35 29.4    0.293    1.278   151.5    22.2    17.8
2010 06 03    14 31.55   -36 52.2    0.341    1.316   148.2    24.0    18.3
2010 06 13    14 52.79   -37 18.9    0.399    1.361   144.7    25.5    18.7
2010 06 23    15 14.16   -37 10.4    0.469    1.411   140.9    27.0    19.2
2010 07 03    15 35.39   -36 42.1    0.550    1.466   136.7    28.4    19.7
2010 07 13    15 56.37   -36 03.7    0.643    1.524   132.2    29.6    20.1
2010 07 23    16 17.19   -35 21.1    0.747    1.585   127.4    30.6    20.6
2010 08 02    16 37.82   -34 37.2    0.863    1.648   122.5    31.3    21.0
2010 08 12    16 58.28   -33 52.9    0.990    1.712   117.4    31.7    21.4
2010 08 22    17 18.61   -33 08.3    1.127    1.776   112.2    31.8    21.8

Timothy B. Spahr             (C) Copyright 2010 MPC           M.P.E.C. 2010-D07

Read MPEC 2010-D06 Read MPEC 2010-D08


MPEC number:

Enter an MPEC number in one of the following forms:

  • 1997-B01 (the full form)
  • J97B01 (the packed version of the full form)
  • B01 (the abbreviated form)

Valid HTML 4.01!